Wind_Speed
9 9 7 8 8 5 3 2 1 2 3 1 4 6 5 9 11 12 14 13 9 8 9 11 11 8 8 10 11 13 12 8 6 4 7 12 19 23 24 22 20 20 20 19 19 19 17 17 17 18 17 17 16 16 15 15 14 14 14 13 13 12 12 12 12 12 12 12 13 13 13 14 18 18 17 16 15 16 16 16 16 15 15 16 17 19 20 20 18 17 16 15 15 16 17 17 17
9 7 7 6 6 5 0 1 2 2 2 2 4 6 8 10 12 13 14 12 9 10 10 11 11 9 11 11 12 13 13 13 14 11 12 21 21 22 26 24 23 20 19 20 19 18 17 17 17 17 17 16 16 15 15 14 14 13 13 13 13 12 12 11 10 10 10 11 12 14 13 14 16 17 17 17 17 16 15 14 14 14 14 15 17 20 19 19 18 17 16 15 15 15 17 17 17
8 5 6 5 5 5 1 1 3 1 2 3 4 7 10 10 12 13 13 14 13 14 12 12 11 9 10 11 11 12 11 13 19 16 14 22 18 18 23 22 23 20 18 19 18 18 17 17 17 17 16 16 15 15 14 13 13 12 12 12 12 12 12 11 9 9 10 11 12 14 15 15 14 15 16 17 18 17 15 14 14 13 13 15 17 19 19 17 18 18 16 16 15 15 16 17 16
6 4 5 2 3 4 3 3 2 0 3 5 5 6 10 12 14 14 14 16 14 13 12 12 11 7 8 12 12 11 12 13 18 17 13 18 18 19 21 20 20 18 17 17 17 17 17 18 17 16 15 15 15 14 13 13 12 12 11 11 11 11 11 11 9 9 10 10 11 13 15 15 15 15 15 16 17 17 16 15 15 14 13 14 17 18 19 18 18 18 17 16 15 15 16 17 16
7 4 2 3 1 1 3 2 1 1 2 5 5 6 11 14 15 16 15 15 14 12 11 11 10 9 9 12 9 8 12 13 17 18 16 19 21 21 21 20 18 16 16 16 17 17 17 18 16 15 14 14 13 13 12 12 12 11 11 11 11 11 11 11 10 10 11 10 10 12 13 15 15 15 14 15 15 16 16 15 15 15 14 14 16 18 18 18 17 18 17 15 14 14 15 16 15
6 3 2 3 2 1 2 1 1 1 2 2 7 9 13 15 15 18 17 15 13 11 11 11 12 13 11 11 9 8 12 13 15 17 19 22 22 20 21 23 19 16 16 16 17 16 17 17 16 14 14 13 13 13 12 12 11 11 10 10 11 10 10 10 9 10 11 11 11 11 12 14 14 14 14 14 14 15 16 15 15 14 13 14 15 16 16 17 16 17 16 15 14 14 14 14 14
3 2 1 3 2 2 3 1 2 3 3 2 9 12 14 15 16 18 17 15 12 10 10 11 12 13 11 10 10 11 15 15 15 17 22 23 22 20 20 25 22 17 18 18 17 17 17 17 16 14 13 13 12 12 12 12 11 10 10 10 10 10 9 9 9 9 10 11 12 12 12 14 14 14 14 14 14 15 15 15 15 13 13 13 14 14 14 15 15 15 15 15 14 14 14 13 13
2 2 1 3 2 2 2 2 3 4 5 7 12 14 15 16 16 16 16 13 10 10 12 13 12 12 12 12 11 12 17 17 19 23 25 23 22 19 18 24 21 17 17 18 18 18 17 17 16 14 13 12 12 12 11 11 10 10 10 10 10 9 9 9 9 9 10 11 12 12 12 13 14 14 13 13 13 14 14 14 14 13 13 13 12 13 14 14 14 14 14 14 14 13 14 13 12
2 0 1 2 3 3 2 1 4 7 8 10 13 13 15 15 15 15 15 12 11 12 13 12 11 12 14 15 12 11 16 20 24 25 24 22 20 17 18 21 19 17 17 18 18 18 18 17 16 13 12 11 11 11 11 11 10 10 9 9 9 9 9 9 10 9 10 11 12 12 10 11 13 14 13 13 13 13 13 14 14 13 13 12 12 13 13 14 13 14 14 14 14 13 13 13 12
1 0 2 2 3 3 3 1 4 9 9 11 14 13 14 14 14 14 14 13 12 13 13 12 12 14 15 15 11 10 16 21 24 24 22 21 19 17 18 20 18 17 17 17 17 17 18 17 16 13 12 11 11 11 11 10 9 10 10 9 9 9 10 10 10 10 11 11 11 11 10 11 12 13 12 12 13 13 13 13 13 13 13 13 12 13 13 13 13 14 14 15 15 14 13 13 12
2 2 1 2 3 2 4 2 4 10 9 10 14 12 11 13 13 13 13 13 13 13 13 11 13 15 15 14 9 12 19 22 23 23 22 19 18 17 20 22 17 16 16 16 16 17 17 15 15 13 12 12 11 11 10 10 10 10 9 9 9 9 10 10 10 11 12 12 12 12 11 11 11 12 12 12 13 13 13 12 13 13 13 13 12 13 13 12 13 15 15 15 14 13 13 13 13
2 2 1 2 3 1 4 5 7 11 11 11 13 11 10 12 12 13 14 13 13 13 12 11 12 14 14 12 9 15 21 20 21 22 20 18 18 16 19 21 17 16 16 16 17 16 15 14 13 13 12 12 11 11 10 10 9 10 9 9 10 10 11 11 11 11 12 13 12 12 12 11 11 12 11 11 12 14 13 13 12 13 13 13 13 13 14 13 13 15 15 14 13 14 14 14 14
3 2 1 1 1 1 5 8 9 11 10 10 11 10 9 10 13 12 13 13 12 12 11 11 13 13 13 12 10 15 19 19 21 21 19 18 17 16 17 20 17 16 16 15 16 15 14 13 13 13 13 12 12 12 11 10 9 10 10 9 10 10 12 12 12 12 12 13 13 13 12 12 13 13 12 12 13 14 13 12 12 13 13 13 13 12 14 14 14 15 14 14 14 15 15 14 14
3 3 1 1 2 2 5 8 10 9 8 10 9 7 5 7 12 12 12 14 11 11 11 11 13 13 13 12 11 11 15 20 21 20 19 16 16 15 16 20 19 17 16 16 16 15 14 13 13 13 13 12 13 12 10 9 10 10 10 10 11 11 12 12 13 13 13 14 14 14 13 13 14 13 13 13 14 15 14 13 12 13 13 13 12 12 14 15 15 16 15 15 15 15 15 15 15
2 5 2 0 0 4 5 6 11 10 9 12 9 7 6 7 11 11 9 12 11 10 11 11 10 9 12 13 11 12 17 22 22 19 19 17 16 15 14 18 20 17 16 16 16 16 17 15 14 13 13 12 12 12 9 9 10 11 10 10 12 12 12 13 14 14 15 15 15 14 14 15 14 14 14 14 15 16 15 14 13 13 12 12 12 12 13 15 16 16 15 15 15 14 14 14 14
1 4 2 0 2 6 5 6 10 9 10 13 11 10 11 9 9 7 5 8 11 9 8 9 7 8 14 14 16 20 23 23 21 20 19 17 16 15 14 15 17 17 16 17 16 16 18 16 14 13 14 12 12 12 10 10 10 11 11 11 12 12 13 14 15 15 15 16 17 16 15 15 14 14 14 14 14 15 16 15 14 13 13 12 12 13 14 15 16 16 15 15 14 14 13 12 12
3 1 2 2 2 3 2 4 7 9 12 14 12 12 13 10 7 7 7 8 11 10 8 9 8 11 15 17 22 25 25 23 22 21 19 17 15 14 14 13 14 14 14 16 15 15 18 16 14 14 14 15 15 13 10 10 11 11 12 12 12 13 14 15 15 15 15 16 17 16 15 14 12 12 13 12 14 15 16 15 13 13 13 12 13 14 15 15 15 15 14 14 14 13 12 11 10
2 2 1 2 1 2 2 2 8 11 15 15 12 13 14 12 10 8 10 10 10 10 10 11 12 15 20 24 26 25 24 24 22 21 18 16 14 13 13 13 13 12 12 14 12 12 15 16 15 14 13 14 14 13 11 11 11 11 11 12 12 13 14 14 15 15 15 16 15 14 14 12 11 11 10 10 13 15 16 15 14 14 14 13 13 14 14 14 14 14 14 14 13 12 11 9 8
2 2 1 2 1 4 2 4 11 12 15 15 12 13 12 13 13 10 10 12 11 11 12 14 17 19 23 26 25 24 24 24 21 20 18 16 14 14 13 13 12 12 12 12 11 10 10 12 13 13 12 11 12 12 12 12 11 10 10 11 11 10 13 15 15 14 14 16 14 12 12 11 12 12 11 12 14 15 15 15 15 15 15 12 12 13 13 13 13 13 13 12 11 10 8 6 6
1 2 1 2 3 4 3 6 11 14 17 16 13 11 12 12 12 10 11 14 12 12 14 15 19 21 22 22 23 24 23 22 20 18 17 15 14 14 13 13 12 11 11 12 11 9 9 9 11 12 11 10 12 13 13 12 10 10 10 10 10 10 12 14 13 12 13 16 15 14 13 11 13 15 14 15 17 16 15 14 14 15 14 11 11 11 11 12 13 12 11 9 8 6 6 5 5
3 1 1 1 2 2 5 9 12 14 16 17 16 13 12 12 10 9 12 13 11 12 14 16 20 22 23 22 22 23 22 21 19 17 16 15 14 13 12 13 12 11 11 11 10 10 9 9 11 11 11 10 13 15 14 14 12 10 10 9 9 9 11 14 12 11 13 15 16 16 14 12 13 16 15 17 18 17 15 13 13 14 12 10 10 10 10 11 11 9 8 7 6 5 6 5 5
3 2 4 3 4 3 5 11 14 12 13 15 17 15 13 12 10 10 11 10 8 10 14 18 20 21 22 22 22 21 20 19 19 17 16 15 15 13 13 13 12 11 11 10 10 10 9 10 10 11 11 9 11 14 13 13 12 10 9 9 9 9 10 13 13 12 12 14 17 17 15 14 15 15 16 18 18 17 15 14 12 12 12 11 11 10 10 10 8 7 7 6 6 5 5 5 4
2 3 4 3 5 3 2 11 16 12 13 14 14 13 12 13 12 9 9 10 9 11 16 19 20 21 22 22 21 20 18 17 18 17 16 15 15 14 14 14 12 11 11 10 11 11 10 9 10 10 11 9 9 12 12 12 10 9 9 9 9 9 8 11 12 11 10 13 17 17 14 14 15 15 16 17 16 15 13 13 13 11 12 12 12 9 9 9 8 6 6 5 4 5 5 5 5
4 3 4 4 6 5 4 8 14 13 13 12 11 13 13 14 13 9 9 12 12 13 17 19 20 21 22 20 20 19 18 17 17 17 16 14 14 14 13 13 12 11 11 11 10 10 10 10 10 10 10 10 9 9 10 11 10 10 9 9 9 9 8 9 11 10 9 10 14 16 15 14 13 13 14 14 15 14 11 12 12 9 9 10 10 10 9 9 8 6 5 5 4 5 6 6 6
5 4 5 7 8 9 9 9 12 13 11 11 12 12 12 13 11 10 11 13 14 16 18 19 20 20 19 19 19 18 17 17 17 16 15 14 14 14 13 12 12 11 11 11 10 10 10 10 10 10 10 10 10 9 10 10 10 9 9 9 9 9 9 10 10 10 8 9 11 12 14 15 12 11 13 12 12 13 10 14 16 10 9 10 11 10 8 8 8 8 8 7 6 5 5 6 6
7 5 6 8 9 11 11 11 13 11 6 8 13 11 11 13 11 11 12 13 15 17 18 19 19 19 17 17 17 16 16 16 17 16 15 14 14 13 13 12 12 12 12 11 11 10 11 11 10 11 10 10 9 9 10 10 9 9 8 9 8 8 10 10 9 10 9 9 10 9 11 12 13 12 13 13 12 12 10 15 19 14 11 14 14 10 8 8 8 8 7 7 6 5 5 4 5
8 10 9 7 8 10 6 4 9 10 4 3 11 12 11 10 8 8 11 14 16 17 19 19 18 18 17 16 16 15 15 16 17 16 15 14 13 13 13 12 12 12 12 12 11 10 11 11 11 11 10 9 9 9 9 9 9 8 8 8 8 9 9 9 9 10 9 10 10 10 9 9 11 11 12 13 13 12 10 10 13 11 9 11 11 9 7 6 6 5 5 6 5 5 5 3 3
7 10 9 7 7 9 9 8 9 8 4 4 4 12 9 3 4 9 13 15 16 18 19 19 17 16 16 17 15 13 14 16 16 15 15 14 13 13 12 11 12 12 11 12 11 11 11 11 12 12 11 10 9 9 9 9 9 8 8 8 8 9 8 9 9 10 11 11 10 9 9 9 10 9 8 9 9 8 8 8 8 8 7 8 7 6 5 5 5 5 5 5 4 4 4 3 2
4 5 5 6 7 9 9 8 6 5 4 2 3 9 7 2 7 13 15 15 16 18 19 18 17 15 16 16 13 12 13 16 15 14 14 14 13 13 13 12 12 12 11 12 12 12 12 11 12 12 11 10 9 10 10 9 9 8 8 8 8 8 8 9 10 10 11 11 10 9 9 9 8 7 6 6 7 7 7 7 7 7 7 6 6 5 4 4 4 4 4 4 3 2 3 3 2
3 3 3 5 5 5 5 7 8 7 5 3 3 5 7 6 10 13 15 16 16 17 18 17 16 15 15 14 13 12 14 15 14 14 14 13 13 13 13 12 12 12 11 12 12 12 12 11 12 12 11 11 10 10 10 9 9 8 8 9 9 8 8 9 10 11 11 10 10 9 9 8 7 7 5 4 5 6 6 6 6 7 6 6 6 4 3 4 4 3 3 3 2 2 2 2 1
2 2 4 2 2 3 4 4 8 8 5 4 1 3 7 8 11 13 14 16 16 16 17 17 16 15 14 14 13 13 13 14 15 16 15 13 13 13 13 13 12 12 11 12 12 13 12 12 12 12 12 11 10 10 10 10 9 8 8 9 9 8 8 9 10 10 10 10 10 9 8 7 7 7 5 4 4 5 6 6 6 6 5 5 4 2 3 4 4 3 3 3 2 1 1 2 2
4 1 2 5 3 4 3 4 6 7 6 4 2 3 6 8 12 13 13 15 15 16 16 17 16 16 15 14 13 13 13 14 16 16 15 14 13 13 13 13 12 12 12 12 13 13 12 12 12 13 13 11 11 11 10 10 8 8 8 9 8 7 8 9 9 10 10 10 10 9 8 7 7 6 6 4 3 4 6 6 6 6 4 5 4 3 4 4 4 4 4 5 5 4 1 1 2
5 3 3 2 3 5 5 5 3 5 8 5 2 4 5 8 13 13 13 15 14 15 16 17 17 16 15 13 13 13 13 14 15 16 16 14 13 13 13 13 12 12 12 13 13 13 13 12 11 13 13 12 12 11 11 10 8 8 8 8 8 7 8 8 9 9 9 10 9 9 8 7 7 6 6 5 3 4 5 6 7 6 5 5 3 3 5 4 4 4 3 4 3 2 1 2 2
2 3 1 1 1 4 6 6 4 5 9 7 5 6 7 10 14 13 13 14 14 14 16 16 16 15 14 13 13 13 13 13 12 15 17 15 14 14 14 14 13 12 12 13 13 13 13 12 12 14 13 12 12 11 11 10 9 8 8 8 8 7 7 8 8 8 9 9 9 9 8 7 6 6 6 5 4 4 5 7 7 6 5 4 3 4 5 3 3 4 4 2 2 2 3 3 1
3 1 2 0 3 5 6 7 8 10 10 9 8 7 8 12 14 13 13 14 13 14 15 15 15 15 14 13 14 13 13 13 13 16 18 16 15 15 15 15 14 13 13 13 13 13 13 12 13 14 13 12 12 12 11 10 10 9 8 8 8 7 6 7 8 8 8 8 8 9 7 6 6 5 6 5 3 4 5 6 6 6 5 4 4 4 3 2 2 3 4 2 2 2 2 1 1
4 6 4 3 2 3 4 6 10 13 10 10 9 7 11 12 12 13 13 13 13 13 14 13 13 14 14 13 13 13 14 13 14 18 18 17 16 16 15 15 14 13 13 14 13 13 13 12 12 14 14 13 13 12 12 11 10 9 9 9 8 7 7 7 7 7 8 8 9 8 7 6 6 5 6 5 3 3 5 6 6 5 5 4 3 4 3 2 1 2 2 1 1 1 1 2 2
2 8 5 3 2 1 4 7 10 11 8 10 10 8 11 11 12 13 13 13 13 14 16 14 13 13 13 14 14 14 13 13 16 18 18 17 17 16 16 15 15 14 14 15 14 13 13 13 13 14 14 14 13 12 11 11 10 10 9 9 9 8 8 7 7 7 8 8 8 8 7 6 6 6 6 5 4 3 4 7 6 4 4 4 3 3 2 2 1 0 1 1 1 1 1 3 3
6 6 6 3 4 2 3 6 10 10 6 8 11 9 10 11 11 11 10 12 13 14 16 16 16 14 12 14 15 15 12 13 16 17 18 18 17 17 16 16 16 15 16 15 14 14 13 13 14 13 13 13 12 12 11 10 10 9 9 9 9 9 9 8 8 8 8 9 8 7 7 7 6 6 5 5 5 4 4 7 7 5 4 4 1 1 1 1 0 1 1 1 1 1 2 4 3
9 4 6 4 5 5 3 3 7 9 5 7 13 9 9 9 7 6 8 12 12 14 15 15 16 15 13 13 14 15 14 14 15 16 17 18 18 18 16 16 16 16 17 16 15 15 14 13 13 13 13 12 12 12 11 10 10 8 8 9 9 9 9 8 8 8 8 9 8 7 7 7 7 6 6 6 5 5 5 7 8 6 5 5 2 1 1 1 0 1 1 3 3 1 4 6 3
7 3 4 5 6 5 4 5 8 9 3 4 11 8 5 6 5 6 8 10 9 11 13 14 15 14 14 13 13 14 15 15 15 16 16 18 18 18 16 16 17 16 17 17 17 16 14 14 13 13 13 12 12 12 11 10 10 8 7 8 8 8 8 8 7 8 8 9 9 8 8 8 8 7 7 7 6 6 6 6 8 7 5 6 3 2 2 2 1 1 3 4 4 3 5 8 5
9 7 4 7 11 8 4 8 8 6 1 4 9 5 1 5 6 7 8 9 7 10 10 12 14 14 14 13 13 14 15 15 16 16 16 17 19 18 17 17 17 17 17 17 18 17 15 15 15 14 13 12 11 12 11 11 11 9 9 9 8 8 8 8 9 9 9 10 10 9 9 9 8 8 7 6 6 6 5 5 6 6 6 6 4 3 2 1 1 2 3 2 3 4 4 8 7
9 9 6 5 12 11 6 10 10 3 2 7 9 5 2 6 8 9 9 8 9 10 10 12 14 15 14 13 14 14 15 14 15 15 16 17 19 18 18 17 17 17 16 17 17 16 16 16 16 15 13 12 12 13 12 11 12 11 10 10 9 9 10 10 10 10 10 10 11 11 11 10 8 8 7 6 6 6 5 5 6 6 6 5 4 2 1 1 1 2 3 3 5 6 4 4 6
8 4 6 3 7 11 8 9 9 3 2 6 8 5 2 5 9 11 10 9 10 9 10 13 14 15 14 13 13 14 15 14 14 15 15 17 19 19 18 18 18 17 17 17 17 17 17 18 17 15 14 12 12 13 12 12 11 11 11 11 10 10 10 10 9 9 9 9 11 13 12 11 9 8 7 5 5 6 5 5 5 5 6 5 4 3 3 2 1 2 3 4 5 5 5 5 4
5 4 1 4 5 9 10 9 6 3 4 5 7 6 1 3 8 11 12 11 10 9 11 13 13 15 16 15 14 15 16 15 14 15 15 17 19 19 19 18 18 17 17 17 17 17 18 18 18 16 14 13 13 13 12 11 10 10 11 10 10 10 10 10 9 9 8 7 8 11 10 10 9 8 8 6 5 6 5 5 5 4 4 5 5 4 2 3 2 1 2 3 4 5 5 5 6
4 4 5 6 4 5 9 8 3 2 4 4 7 7 3 2 5 9 11 11 11 11 13 15 16 17 17 16 17 16 16 16 15 15 15 17 19 19 19 18 17 17 17 17 17 17 18 18 18 17 15 14 14 14 13 11 10 10 10 9 9 9 9 10 11 10 9 7 7 8 8 9 10 9 8 7 6 6 6 5 5 4 4 4 4 4 3 3 3 1 1 2 3 4 4 4 5
6 1 6 8 4 3 6 4 2 2 5 3 8 10 4 1 4 8 9 10 12 12 11 14 17 17 17 17 18 17 16 15 15 15 16 18 20 20 20 19 17 17 17 17 17 18 18 18 18 17 16 14 14 15 14 11 11 10 10 9 9 9 9 10 10 9 8 8 8 8 8 8 9 9 9 8 7 6 6 5 6 5 4 4 3 3 4 4 3 3 1 2 2 3 3 3 3
8 4 6 9 5 4 4 3 2 3 6 4 9 14 9 4 4 8 9 11 14 13 11 14 16 17 17 16 17 17 16 14 14 15 16 19 20 19 20 19 18 17 16 17 17 18 18 18 18 18 16 15 15 15 14 12 12 11 10 9 9 9 9 9 9 9 8 8 8 8 8 7 8 8 9 9 8 8 7 6 6 5 4 4 3 3 4 4 4 4 3 2 2 2 2 2 2
10 6 6 7 5 4 4 3 4 5 6 4 12 17 13 6 5 10 11 11 16 16 15 17 17 16 17 16 17 17 15 15 15 14 15 18 19 19 20 19 18 18 17 17 17 18 18 18 18 18 16 15 16 16 14 13 12 11 10 10 9 9 9 9 9 9 9 9 8 8 7 8 7 7 8 8 8 8 7 6 5 4 4 4 3 3 3 2 3 3 3 2 1 1 0 1 2
10 7 8 8 5 5 6 5 6 6 5 4 8 12 9 3 3 11 14 12 15 17 16 18 19 17 17 16 17 15 14 16 15 14 14 15 15 18 19 19 19 18 17 17 17 17 18 18 19 19 17 16 16 16 15 13 12 11 10 10 10 9 9 9 8 8 9 8 8 8 7 7 7 7 8 7 8 8 8 7 6 5 4 4 3 3 2 2 1 2 3 2 1 1 0 0 1
10 9 8 8 6 7 7 6 6 6 6 5 5 4 4 2 3 8 14 13 15 17 16 17 18 18 18 17 17 16 15 15 14 14 14 13 14 18 19 19 19 18 18 17 17 17 17 18 19 19 18 17 16 16 15 14 12 11 10 10 10 10 9 9 8 8 9 9 8 8 8 8 8 8 8 7 7 8 8 7 7 6 5 4 3 3 3 2 2 2 2 2 2 1 1 2 2
11 10 9 9 7 7 6 5 5 5 5 5 4 2 2 2 4 7 11 11 13 14 14 15 14 14 16 17 17 17 16 15 13 14 15 15 17 19 19 20 20 19 19 18 17 17 17 18 19 19 19 18 16 16 15 15 13 11 11 10 9 10 9 9 9 8 8 8 8 8 8 7 7 7 7 7 7 7 7 7 7 6 6 5 4 4 3 4 4 3 2 2 3 2 2 2 3
8 9 10 9 8 7 6 5 5 4 4 4 3 2 3 4 6 8 8 9 14 14 12 12 10 10 13 15 17 17 15 15 15 15 15 17 20 21 19 20 20 19 19 18 17 17 17 18 19 19 19 18 17 16 16 15 14 12 12 11 10 10 9 9 9 7 7 8 7 8 8 7 7 7 7 7 7 8 8 7 7 7 7 6 5 5 5 4 4 4 3 3 4 3 2 3 3
5 8 10 9 8 8 7 8 8 7 7 4 4 4 3 4 4 7 8 9 13 15 16 14 12 13 15 16 16 16 15 15 14 15 15 16 20 20 19 19 20 20 20 19 18 17 17 18 19 20 19 19 18 17 16 15 15 14 13 12 11 10 10 10 10 9 9 8 7 7 7 7 7 7 7 8 8 8 8 8 8 8 7 7 6 6 6 5 5 5 5 4 5 4 3 3 4
6 7 9 9 8 8 6 7 7 7 8 5 7 7 3 3 3 6 10 10 12 13 15 17 16 15 16 16 15 14 15 16 15 15 16 16 19 19 19 19 20 20 19 19 19 18 17 17 18 20 20 19 19 18 17 16 15 15 14 14 13 11 11 11 10 10 10 9 9 8 8 8 8 8 7 7 8 8 8 8 8 8 8 8 7 7 6 6 6 6 6 5 6 5 4 4 5
13 8 6 8 9 8 6 6 6 6 8 6 6 8 6 6 6 7 9 10 13 12 13 16 16 14 15 16 17 17 16 15 14 14 14 15 19 21 20 20 19 19 18 19 20 19 19 18 18 19 20 20 20 19 18 16 16 15 14 15 14 12 12 11 10 10 10 9 9 9 9 8 8 8 7 6 7 8 8 9 9 9 8 8 8 8 7 7 7 7 6 6 7 6 6 6 6
15 11 7 7 7 7 6 7 7 7 7 6 6 7 3 1 4 11 12 10 12 12 12 13 15 16 13 10 13 15 15 14 12 12 13 14 20 23 22 20 19 19 19 20 21 21 21 19 19 19 19 20 19 19 19 18 17 15 14 15 15 14 13 12 10 10 11 10 10 10 9 9 9 9 9 8 7 8 8 9 9 9 9 9 9 8 8 8 8 8 7 7 6 6 7 7 6
11 10 7 7 6 6 6 7 8 8 7 6 6 6 1 3 2 7 11 10 11 11 12 10 11 15 13 9 11 12 14 14 13 12 10 12 18 23 22 20 19 19 19 19 20 21 20 19 19 19 20 20 20 19 19 18 17 16 16 16 16 16 14 13 13 13 12 11 11 10 10 10 10 9 9 9 9 8 8 9 9 9 9 8 8 8 8 8 8 8 8 7 5 5 7 7 6
10 9 9 9 8 7 7 7 8 7 8 6 6 6 3 3 3 1 6 7 9 11 13 12 12 15 16 15 16 15 13 13 13 13 10 9 12 18 21 21 20 19 20 19 19 20 20 19 19 18 19 19 20 19 18 18 17 17 17 17 16 16 16 15 15 14 14 13 12 12 11 11 11 10 9 10 10 10 9 9 9 8 8 7 7 8 8 8 8 8 8 8 7 7 7 7 7
Wind_Direction
159 169 195 211 222 231 201 213 275 208 218 205 134 113 122 127 117 119 118 116 108 107 112 109 109 97 96 104 98 73 52 52 55 87 105 120 133 129 125 127 127 124 125 130 127 123 121 118 114 112 110 108 109 109 108 106 107 106 105 104 103 103 99 97 96 98 99 101 103 102 99 101 102 103 103 98 92 89 88 91 97 103 105 105 105 107 111 111 106 102 99 96 94 96 98 98 99
183 202 216 217 220 237 279 159 248 229 175 108 116 111 128 132 123 125 123 118 112 121 118 105 104 92 99 112 106 84 60 62 80 87 104 125 130 128 128 128 129 128 128 129 125 121 119 117 114 111 109 107 106 105 105 105 106 105 105 105 105 104 101 102 107 113 112 108 103 99 96 94 95 98 102 103 100 96 92 92 101 107 108 106 105 110 115 114 109 103 101 99 96 96 99 98 99
199 209 215 213 225 237 262 202 245 298 136 127 112 120 129 127 120 116 113 117 122 125 114 105 102 93 109 112 94 88 82 81 97 102 113 128 128 129 129 126 126 126 126 125 123 121 119 118 115 112 109 108 106 105 105 105 107 107 108 106 105 102 102 105 110 109 103 102 100 103 105 100 99 100 104 108 107 108 106 104 109 108 104 103 105 111 113 111 106 102 100 99 98 99 99 99 99
223 226 233 240 231 239 252 221 244 353 160 137 115 122 124 118 112 107 114 123 128 122 111 110 100 77 86 93 89 89 95 94 106 111 120 129 128 130 125 121 120 117 120 122 122 120 121 121 116 112 111 109 107 106 106 106 108 108 109 107 105 103 105 105 107 108 104 107 108 110 111 109 108 105 104 105 107 112 111 106 109 104 96 97 100 104 107 107 107 105 102 99 100 102 102 101 101
226 222 294 335 233 233 273 266 327 250 165 125 126 127 119 116 113 114 123 128 126 118 116 115 103 96 79 78 88 96 106 108 114 116 118 125 128 129 122 121 121 116 117 120 123 119 121 122 115 115 112 110 109 108 108 108 110 109 109 106 105 107 109 109 110 110 108 114 115 112 109 107 107 103 99 97 100 107 107 102 102 100 96 96 95 99 105 110 112 108 104 103 103 102 102 101 101
220 211 5 317 259 260 254 267 262 172 39 77 124 122 119 118 119 122 127 126 120 115 119 114 107 110 89 71 74 94 118 118 118 117 119 126 130 129 125 124 121 118 118 121 123 119 123 122 116 117 112 112 112 110 111 113 114 112 110 107 110 113 113 115 115 109 108 113 116 117 111 105 106 107 104 99 98 100 103 102 100 98 99 99 97 100 107 111 111 106 105 105 105 103 102 102 102
214 228 316 277 235 233 239 198 215 128 83 156 124 119 121 121 125 125 127 126 120 118 120 116 117 114 97 89 80 89 114 117 118 119 123 127 129 130 127 122 120 121 120 123 126 122 125 123 117 116 113 114 112 111 113 114 115 114 115 114 116 116 114 115 114 110 109 111 113 118 113 107 109 111 109 106 104 103 103 103 103 102 101 102 102 105 107 110 110 108 110 109 107 107 105 104 105
162 230 293 279 243 225 229 159 170 126 143 146 114 118 124 125 128 127 129 128 123 123 119 117 118 106 95 101 98 102 112 114 116 120 124 127 129 134 128 118 118 121 121 124 127 125 125 121 117 116 117 117 115 113 111 113 116 116 116 116 119 118 114 110 112 115 113 114 116 119 113 109 111 110 107 105 105 104 105 105 107 107 106 106 107 108 108 109 112 112 113 112 110 111 110 107 106
133 256 275 266 272 241 205 145 132 118 128 116 105 119 124 126 130 129 130 126 123 124 122 117 113 105 102 103 103 109 110 112 118 121 125 129 132 134 127 120 119 122 122 122 123 124 123 120 118 119 120 118 115 112 110 113 115 114 113 114 117 116 115 112 114 119 117 115 116 119 114 111 113 110 108 108 108 109 112 112 112 111 110 109 109 110 111 112 114 115 115 114 112 113 112 108 106
173 155 248 239 263 221 154 146 132 110 110 111 115 125 124 129 131 130 129 125 126 125 121 114 110 112 112 108 107 114 115 121 125 125 127 130 132 132 125 121 122 124 123 123 123 123 121 120 118 118 117 116 115 112 111 110 108 108 108 108 108 111 115 115 113 115 116 111 112 116 115 117 115 112 112 112 113 114 114 114 115 116 115 113 115 117 117 116 114 114 118 118 116 113 110 108 106
255 205 218 245 259 217 123 131 135 110 115 122 122 125 126 133 132 129 126 125 126 122 119 116 114 114 112 108 107 117 124 131 130 129 131 131 130 130 122 121 126 123 124 126 124 123 122 120 116 115 115 115 114 111 109 103 101 100 102 104 102 105 107 110 110 109 109 106 111 113 114 116 112 113 115 115 117 118 115 114 117 117 117 118 120 121 118 115 112 114 120 120 118 114 112 111 107
260 229 188 242 257 221 135 141 133 119 126 130 127 128 132 136 133 130 128 126 126 122 120 122 123 121 115 109 113 127 131 135 133 131 132 132 131 129 124 124 127 123 126 127 124 125 124 119 114 114 115 113 109 104 100 98 98 98 100 102 103 105 103 103 102 102 103 105 109 110 112 116 113 115 115 113 116 119 118 117 120 116 116 118 118 117 115 114 114 117 122 122 119 116 114 112 108
252 261 228 265 309 218 158 134 124 122 129 133 126 125 136 139 132 131 129 126 125 121 118 125 131 125 114 113 126 136 136 136 135 135 135 134 131 129 126 124 125 126 127 127 126 126 122 118 116 117 115 109 103 98 97 100 100 98 97 99 104 105 103 101 98 98 101 103 105 105 112 118 116 114 114 116 115 118 119 118 120 113 112 116 116 119 117 116 117 120 123 122 118 113 111 109 106
268 300 280 298 354 233 167 131 133 135 131 129 119 113 132 145 135 133 131 125 116 114 116 124 126 118 115 123 135 139 138 138 139 139 136 134 130 129 128 123 125 127 127 128 129 129 129 129 124 122 116 106 98 94 96 100 99 98 96 99 103 104 105 104 101 100 98 100 103 105 110 115 116 116 120 121 116 115 116 114 112 108 108 113 118 122 121 122 121 122 123 120 116 113 110 107 104
295 289 270 259 47 196 187 146 145 146 137 134 130 129 139 142 132 124 124 121 111 114 121 125 123 124 136 139 140 142 141 141 141 140 135 133 130 128 127 126 128 129 128 130 132 135 140 137 130 124 116 107 100 98 98 97 98 100 100 102 104 105 107 106 104 102 101 103 104 106 107 108 113 116 119 119 116 116 116 114 112 111 109 112 117 119 121 124 122 122 122 119 117 115 109 104 103
192 287 305 303 188 192 190 151 145 143 142 140 136 147 141 122 112 107 127 127 117 123 127 124 119 134 145 140 135 140 141 142 142 139 135 132 130 128 129 129 129 131 133 135 133 139 142 133 126 125 121 117 109 107 107 105 105 104 104 106 108 109 110 111 109 106 108 110 108 108 106 106 111 111 111 116 117 117 120 120 117 116 112 110 114 116 119 122 122 123 122 120 118 114 108 104 104
177 291 312 275 229 184 187 159 154 141 138 139 142 155 140 121 117 120 141 136 120 126 128 123 121 131 134 131 134 139 139 141 142 138 136 136 135 134 134 133 132 133 138 139 135 140 143 130 123 127 127 124 118 116 116 113 110 107 107 108 110 113 114 112 109 108 113 113 108 110 108 107 112 109 109 116 117 116 118 118 113 113 110 110 114 117 120 122 123 122 121 120 116 114 110 108 109
202 250 262 272 282 116 266 180 144 141 138 138 149 157 141 138 144 135 137 129 120 122 121 121 120 118 118 126 134 137 139 142 144 142 143 143 143 142 140 140 139 137 136 136 133 135 136 131 129 128 122 120 118 121 125 122 114 111 111 110 114 116 115 111 109 112 116 111 107 113 114 111 112 109 111 115 115 115 117 116 114 111 107 111 118 119 119 120 120 117 116 115 115 115 112 114 115
254 255 159 262 350 73 246 162 135 140 136 135 148 155 143 142 144 146 144 131 132 127 120 121 116 115 119 129 136 138 143 145 147 147 148 147 147 145 143 145 141 140 139 133 132 129 124 125 126 123 122 123 122 124 127 124 118 117 113 110 119 120 114 112 111 115 116 110 109 115 114 112 115 112 114 115 114 115 115 115 116 113 111 117 121 117 114 114 111 109 110 110 115 115 115 137 141
222 261 158 255 5 62 194 153 131 135 135 140 150 154 146 144 142 149 148 139 144 133 126 127 124 128 131 135 139 142 147 147 148 150 149 148 147 145 144 144 140 142 141 133 132 129 123 119 115 120 129 135 133 131 129 126 123 121 114 113 125 125 117 111 107 112 114 110 111 115 115 115 117 115 116 116 115 115 114 113 114 115 117 121 118 115 114 113 111 109 112 116 128 129 127 153 161
136 237 232 124 51 96 169 138 130 141 144 145 149 155 148 141 139 146 151 145 142 133 134 137 135 138 138 140 143 146 150 148 149 151 150 148 145 145 143 141 140 140 135 132 132 129 130 126 123 128 134 136 133 131 130 128 129 125 120 125 130 128 125 117 112 112 115 117 116 118 123 124 119 118 117 114 114 117 120 119 120 122 125 129 123 124 126 119 119 122 124 130 144 148 141 148 159
119 246 262 120 135 176 166 144 141 151 149 143 147 152 143 137 136 144 151 141 133 136 137 138 139 141 140 143 145 148 151 150 151 153 152 150 147 147 144 140 139 136 131 134 135 132 135 131 132 133 131 132 128 128 126 122 126 130 130 133 127 127 128 122 123 125 127 129 122 120 126 128 123 121 120 115 112 115 122 127 132 136 141 143 134 134 139 130 133 139 137 144 149 146 144 151 153
130 239 243 129 172 183 163 148 144 153 149 144 147 139 133 137 132 134 140 132 132 132 132 137 139 141 141 143 146 149 152 153 153 153 153 150 148 147 144 140 140 138 136 139 136 136 138 134 133 130 128 127 120 126 129 123 127 131 135 135 124 126 127 120 125 129 130 130 124 122 124 121 115 113 115 116 118 120 130 143 144 146 150 147 139 141 143 137 145 143 131 136 138 139 144 145 134
122 225 186 150 193 152 122 140 144 155 144 135 138 135 138 139 129 124 124 124 129 127 129 135 137 140 143 144 148 149 151 153 151 152 151 148 146 144 142 138 138 138 137 140 140 141 141 136 134 129 127 126 124 127 126 124 128 132 135 132 122 126 125 112 116 123 123 122 122 124 122 115 108 108 107 111 129 134 140 157 153 147 152 147 140 144 143 137 137 131 136 146 148 158 151 138 128
130 221 174 166 183 146 144 159 156 152 134 129 135 134 137 135 127 120 122 126 128 130 132 135 138 142 144 146 147 148 152 151 149 151 149 146 145 143 142 137 136 139 139 141 141 143 141 137 135 132 129 129 131 129 121 121 125 130 131 126 124 128 123 107 108 117 120 114 113 118 119 117 113 113 110 107 123 130 141 172 168 153 154 159 148 138 138 140 139 142 157 157 149 153 144 137 138
143 185 191 181 171 151 159 173 158 134 121 145 136 124 127 133 128 118 129 137 130 133 136 138 141 143 145 147 146 149 151 148 148 151 149 146 145 143 142 140 141 142 141 140 139 141 141 140 137 132 130 131 131 127 122 122 124 127 127 126 126 125 122 118 116 117 118 115 109 103 104 114 120 122 128 127 134 143 157 175 169 159 160 166 157 143 145 154 155 155 152 139 133 130 126 135 140
146 172 187 184 164 144 132 128 112 96 72 131 127 126 131 139 136 130 143 143 136 139 140 141 144 144 146 145 145 151 150 147 149 150 150 147 147 148 147 146 143 139 140 138 136 141 143 142 137 131 130 130 130 125 123 124 125 127 127 126 125 122 123 123 121 118 115 113 109 101 93 105 118 123 133 139 145 155 157 153 153 152 149 150 146 140 145 148 147 142 123 112 115 115 115 126 134
165 173 170 161 140 106 81 63 64 78 75 17 110 125 121 133 138 142 148 145 142 143 142 145 146 145 146 144 147 153 148 148 151 153 152 149 153 154 149 149 142 140 144 137 136 146 146 141 135 133 133 131 131 129 128 130 130 131 130 128 125 122 122 119 117 116 112 109 109 106 100 100 109 114 121 129 134 137 136 130 129 129 123 120 119 119 123 122 117 110 99 95 104 115 116 123 148
192 174 149 126 93 74 80 92 86 94 103 321 236 132 117 154 141 146 152 147 146 145 146 148 147 146 146 145 149 154 149 151 153 153 153 152 157 156 151 152 145 144 144 136 143 149 143 138 135 134 137 136 136 133 131 134 134 136 136 131 128 124 123 120 115 113 110 110 110 107 104 98 98 104 103 109 119 118 117 117 114 111 106 100 101 100 100 105 104 100 93 87 92 119 127 136 168
182 157 108 88 76 82 86 98 112 117 130 196 232 145 143 152 146 156 156 149 149 149 151 151 149 149 148 148 154 155 151 155 156 154 155 155 157 156 153 153 149 143 139 141 150 146 140 139 138 138 140 139 137 135 135 137 137 138 138 134 133 130 126 121 116 114 113 113 112 109 105 99 96 99 96 92 105 112 107 104 102 99 94 92 95 94 94 96 88 90 86 84 97 119 127 136 147
181 86 86 149 130 111 96 111 139 131 135 171 189 152 149 143 154 164 158 154 152 152 156 154 152 152 150 153 158 155 154 161 160 156 156 157 159 156 151 152 148 140 142 151 150 144 143 143 141 140 141 140 137 137 137 137 138 138 138 138 137 135 130 125 122 120 119 118 116 115 110 106 104 102 100 91 100 115 108 101 96 92 91 89 93 88 89 93 82 74 52 49 63 61 98 113 92
191 65 107 194 160 124 126 142 167 150 144 176 195 147 145 148 160 164 162 161 156 156 161 157 154 155 154 156 160 156 157 165 162 156 157 158 158 153 150 152 146 143 151 152 147 146 145 144 144 142 141 140 137 138 136 133 135 136 136 139 139 136 130 126 126 125 124 125 124 124 121 118 114 109 109 100 99 118 109 105 101 97 100 95 95 80 76 87 83 70 34 27 25 21 33 120 111
182 202 196 204 151 150 150 143 187 162 146 160 173 152 159 161 160 163 168 167 161 161 164 160 157 157 157 158 161 157 159 167 163 156 158 159 156 152 151 151 146 149 153 147 148 149 144 146 146 142 142 139 136 138 136 134 134 135 138 139 137 133 131 128 128 129 128 128 128 128 128 126 122 117 118 113 110 123 118 117 112 104 101 92 81 62 74 86 93 93 53 24 22 41 330 272 134
192 243 122 32 200 168 156 153 176 179 165 162 159 160 160 158 161 165 170 170 166 166 166 163 160 160 161 162 160 160 162 166 163 158 160 160 156 154 152 149 148 152 149 148 151 146 143 148 144 140 140 137 137 140 138 138 136 138 141 137 133 133 137 134 132 132 131 131 130 131 132 129 127 123 125 124 116 119 116 114 113 109 105 105 97 79 78 64 77 102 94 61 24 34 336 297 118
203 235 76 126 226 204 181 160 163 177 182 171 161 161 159 162 165 168 173 175 170 169 170 166 165 163 163 166 163 161 164 164 163 162 162 160 156 155 152 150 153 154 151 148 147 144 144 147 142 140 143 141 140 141 140 139 139 144 145 138 136 138 139 136 138 139 136 135 133 134 136 134 134 132 137 142 131 123 117 110 114 118 118 128 134 115 101 64 63 86 95 83 3 8 359 335 136
173 138 143 187 206 223 181 152 165 172 179 176 167 160 163 168 172 173 175 177 174 170 171 170 169 166 165 172 166 161 166 164 163 165 163 160 158 155 153 153 155 155 150 145 147 149 147 148 145 145 149 148 143 144 146 146 146 149 149 145 143 143 143 142 145 144 142 140 137 141 142 139 141 141 144 149 144 131 124 118 119 120 115 103 100 115 126 125 99 74 85 59 312 265 225 175 162
202 126 132 180 167 191 144 151 171 174 176 177 171 158 162 175 181 178 175 179 179 170 172 174 172 171 172 174 166 162 168 163 162 166 163 161 159 157 154 156 158 153 148 147 151 152 150 152 151 150 151 150 149 150 151 151 151 152 153 152 150 149 147 149 154 152 148 140 137 146 148 145 146 146 149 147 142 128 117 120 120 123 119 96 71 79 104 126 130 17 100 350 293 213 214 133 101
251 146 132 174 182 160 135 155 168 176 187 180 176 161 161 186 186 170 172 187 186 173 173 175 174 175 178 176 165 164 169 162 162 165 164 163 160 160 157 157 160 155 151 154 155 154 155 155 153 154 153 153 154 152 152 153 153 155 156 154 152 151 152 158 162 158 152 144 143 149 149 150 151 151 154 151 153 147 126 123 123 126 124 114 102 86 106 173 125 312 294 345 358 119 75 85 76
252 173 143 175 180 140 120 172 179 187 202 184 184 172 157 181 188 171 188 200 189 177 178 175 175 176 179 179 166 166 170 163 164 165 165 166 162 162 161 160 161 158 156 157 155 156 158 156 155 157 156 156 156 152 155 154 152 155 153 151 152 152 159 163 158 153 150 148 153 156 151 154 157 159 159 155 161 156 142 135 135 150 150 135 140 141 183 233 64 323 25 36 334 249 101 83 48
251 214 146 159 177 175 165 183 195 200 218 182 184 179 153 164 185 203 222 225 190 170 181 182 177 177 182 181 168 170 172 164 166 167 166 167 164 164 164 163 163 161 161 159 157 159 161 159 158 160 158 156 156 154 155 151 149 149 143 149 153 150 155 153 147 154 154 152 160 163 158 164 167 162 160 160 160 154 154 150 144 158 155 131 134 168 190 209 179 24 48 46 321 284 109 89 60
241 224 189 163 174 200 196 156 174 203 187 148 162 159 174 178 186 195 209 229 197 159 181 194 183 178 182 181 172 174 174 168 169 169 169 168 166 167 166 166 166 164 165 162 161 163 162 161 160 161 161 157 157 155 152 148 149 149 145 149 149 146 152 153 158 166 162 160 167 169 163 169 172 162 163 166 158 156 164 155 140 145 145 144 163 181 175 225 160 90 49 35 355 355 75 92 80
244 219 209 182 159 166 164 146 153 191 189 170 172 166 183 188 197 195 182 201 197 167 183 200 189 180 182 182 177 177 176 173 173 173 172 169 167 168 166 169 170 168 168 164 164 164 161 161 161 161 161 158 159 156 153 152 153 157 158 160 160 159 163 167 172 172 170 171 170 170 170 171 171 163 167 168 156 160 164 155 150 147 151 161 166 155 152 215 192 90 51 23 31 21 23 80 102
256 210 182 194 152 145 144 156 159 169 168 182 208 218 156 174 205 202 181 189 201 186 192 201 190 181 183 184 180 181 179 175 177 177 175 170 168 168 167 172 173 170 170 165 163 162 159 160 161 161 160 158 160 159 158 157 159 164 167 169 168 169 171 171 173 171 175 178 164 161 167 170 169 166 169 166 154 160 161 161 165 157 156 159 152 158 173 166 141 51 51 32 35 40 21 23 71
267 12 94 220 206 159 156 172 174 171 154 157 214 237 223 196 208 195 179 182 196 201 205 204 197 188 183 182 186 186 179 176 179 178 176 172 169 170 169 173 175 170 169 166 163 161 157 159 160 161 160 159 159 161 164 164 164 168 172 173 172 172 172 167 164 166 174 177 156 154 162 167 171 170 172 171 162 165 169 168 173 171 163 158 159 172 169 119 101 47 48 40 28 43 38 21 23
233 12 320 271 253 190 182 184 155 167 193 167 192 214 236 212 185 178 177 181 190 201 206 201 198 194 186 181 188 189 179 178 181 177 176 171 169 172 170 172 175 169 166 166 163 160 158 159 161 160 160 159 161 163 168 171 168 168 172 173 170 170 168 165 164 162 164 164 154 156 162 166 172 172 171 175 175 175 176 174 176 178 170 162 169 170 161 150 145 151 76 64 45 43 46 43 34
246 253 274 267 254 218 213 196 109 204 237 212 170 180 196 174 159 173 185 195 194 193 203 204 195 193 191 184 187 190 182 178 181 178 174 170 171 173 170 173 176 168 165 166 163 161 160 161 162 162 161 161 164 166 169 174 172 169 172 173 170 166 159 162 163 157 157 160 158 160 160 166 176 175 173 177 180 180 181 186 183 180 179 172 175 163 157 170 179 178 161 90 67 53 47 46 50
277 280 251 247 228 230 232 186 161 230 250 230 171 178 199 209 171 182 195 200 193 184 192 203 194 191 193 187 187 191 183 177 180 179 174 169 172 175 171 172 174 169 167 166 164 162 162 164 164 164 164 162 164 168 170 174 176 173 172 170 168 163 155 155 157 157 161 164 165 166 166 173 180 179 179 180 183 184 184 196 194 178 176 176 180 185 176 180 185 180 164 132 103 72 61 44 28
262 258 244 240 215 231 241 199 202 228 246 217 171 180 206 233 206 195 196 194 188 184 189 192 188 191 193 188 190 189 181 179 179 176 174 172 173 176 174 173 172 171 170 168 166 164 163 165 165 165 167 165 166 169 172 175 179 178 171 169 169 164 160 159 158 160 163 165 169 168 169 178 182 181 182 181 183 185 182 193 200 180 176 184 182 189 197 197 185 169 161 169 148 117 74 53 8
242 237 237 239 221 225 234 221 224 234 248 226 179 185 207 233 195 189 189 191 189 185 189 187 181 187 192 189 191 187 179 180 177 174 176 174 174 177 176 172 170 173 173 171 169 165 165 167 166 167 169 169 168 170 173 175 179 180 173 169 170 168 166 163 161 163 164 167 172 172 174 179 182 184 185 184 185 185 183 188 193 184 182 189 177 174 194 212 205 170 166 204 198 162 230 318 310
223 229 231 230 224 231 237 230 231 240 236 215 188 203 218 166 126 175 183 187 187 183 185 186 181 182 186 188 192 187 180 181 176 173 177 175 175 179 178 172 171 176 175 174 174 169 166 167 168 169 170 171 172 172 174 176 178 180 177 172 171 173 174 168 168 173 170 170 174 178 182 183 184 187 186 186 185 183 186 186 188 186 182 185 182 182 195 201 216 216 190 213 226 198 240 277 283
215 227 236 234 231 236 248 241 238 258 256 224 182 202 269 173 149 187 194 176 168 175 178 177 181 186 185 186 192 188 180 181 177 174 178 176 177 182 180 173 174 178 178 178 177 171 167 168 169 171 171 172 174 175 176 177 177 178 179 177 174 175 179 176 175 177 172 173 177 179 184 185 185 185 183 183 181 181 183 180 183 187 182 183 186 190 202 203 211 224 224 230 234 217 223 261 282
212 222 235 234 234 243 260 266 265 272 268 250 218 215 46 88 153 182 193 157 151 167 171 166 179 194 192 190 192 189 181 180 178 176 180 177 177 183 181 175 175 178 181 182 178 174 171 169 170 172 173 173 176 178 179 178 177 178 179 182 180 175 178 179 177 177 176 177 180 180 184 187 183 177 177 181 180 182 183 180 184 187 185 188 190 195 203 204 208 218 224 234 241 233 225 249 273
204 211 230 234 236 243 255 265 265 262 249 206 196 231 90 105 171 167 165 156 155 164 163 166 184 192 195 195 190 187 179 178 180 177 180 178 176 182 181 178 179 179 183 184 179 178 176 172 172 173 173 175 178 181 182 181 178 179 180 184 185 181 181 185 181 182 185 182 182 187 187 185 185 183 182 181 182 185 187 187 190 188 187 193 194 197 204 204 208 219 222 227 237 240 233 243 261
234 210 220 225 233 237 247 266 259 251 254 211 191 226 188 159 213 162 162 165 159 163 161 169 182 185 192 192 188 189 177 175 181 179 181 178 175 182 184 183 183 182 184 183 179 182 181 177 176 175 176 177 179 182 184 184 182 182 183 185 189 188 187 191 187 183 187 184 185 192 191 187 186 188 186 181 179 184 188 190 193 192 190 196 199 198 203 206 209 220 222 224 232 238 241 245 255
251 266 243 221 226 223 213 241 254 246 253 245 223 228 202 189 196 170 181 174 157 165 168 169 176 183 195 192 186 187 177 172 179 177 181 179 175 183 188 187 185 183 186 183 181 185 186 184 182 180 180 179 180 183 183 186 187 186 186 186 189 191 190 193 189 184 189 191 191 192 191 191 187 185 185 183 182 185 189 192 195 199 197 196 201 201 202 204 211 221 225 226 226 225 236 247 250
241 266 272 243 240 240 222 228 250 260 260 261 261 250 210 165 168 164 179 179 162 170 169 167 179 185 190 195 193 185 171 170 176 174 179 179 177 183 189 191 186 183 188 186 184 188 188 186 185 184 183 181 183 183 181 185 189 188 188 187 189 191 191 192 190 189 193 195 196 195 191 191 190 188 187 190 196 196 194 196 199 203 203 200 201 204 204 205 212 222 227 234 227 215 226 244 250
216 233 243 238 232 236 242 237 233 246 260 261 263 256 140 39 309 171 168 165 159 171 168 163 189 188 176 190 209 191 171 175 178 171 175 178 177 182 186 191 188 183 189 190 187 189 189 186 186 186 183 182 185 184 182 186 188 188 189 189 191 191 191 193 192 193 196 193 196 199 196 193 191 193 194 193 200 202 198 201 204 205 207 205 202 205 208 207 212 220 226 235 232 219 230 241 246
209 215 222 234 235 223 231 239 229 233 249 251 262 262 133 90 310 190 146 149 153 173 172 165 188 190 178 186 197 189 178 180 176 167 166 165 176 186 188 190 189 184 187 192 190 190 190 185 184 186 187 185 187 186 184 187 188 189 190 191 193 192 193 197 195 195 196 194 195 197 198 197 194 194 198 196 197 200 199 201 204 206 209 207 201 205 214 214 215 220 224 229 229 227 236 244 246
Height
776 777 777 778 777 777 779 782 797 795 792 800 785 785 791 773 771 777 780 778 780 777 766 767 766 768 774 780 784 783 783 788 795 798 812 813 806 812 813 816 818 819 821 823 826 827 828 829 829 829 829 830 831 832 833 833 833 833 833 834 833 834 834 835 834 834 832 832 834 834 835 836 838 840 842 841 840 840 841 841 840 840 840 841 841 842 842 842 842 843 844 845 845 845 844 844 845
776 777 776 778 776 780 783 782 799 797 793 800 781 779 784 772 775 780 780 780 780 773 764 765 767 769 771 772 774 783 788 784 786 791 800 803 806 811 813 817 819 820 822 824 826 827 828 829 829 829 830 831 831 832 833 833 834 833 834 834 834 835 835 835 833 833 832 833 835 836 837 838 839 840 843 844 843 843 844 844 842 842 842 842 843 842 842 842 843 844 845 847 847 847 846 846 846
776 777 775 778 777 778 783 786 796 798 803 805 787 774 775 779 781 778 775 775 772 766 765 766 770 772 773 779 779 789 796 786 784 790 797 803 806 809 813 816 818 820 821 824 826 827 828 829 830 830 830 831 832 833 833 834 834 834 834 835 835 836 836 835 834 834 834 835 836 836 837 838 839 840 843 844 844 846 847 846 845 844 844 844 844 843 843 844 844 845 847 848 848 848 848 848 848
774 776 774 776 782 782 785 789 791 799 804 798 795 782 774 781 778 776 774 770 767 764 768 770 777 775 775 787 784 788 795 790 789 791 797 803 805 809 812 815 818 820 821 824 826 828 829 829 830 831 832 832 833 833 834 834 834 835 835 836 836 836 836 836 835 835 836 836 836 836 837 837 838 840 842 842 843 845 846 846 845 845 844 844 845 845 845 845 846 846 848 849 850 850 850 850 850
774 776 775 778 787 789 788 790 791 798 794 786 797 788 773 777 775 776 773 768 766 767 770 771 781 778 775 782 782 792 796 792 792 791 796 802 806 809 812 815 818 820 822 824 826 829 829 830 831 831 833 833 833 834 834 835 835 835 836 836 837 837 837 836 836 836 836 836 836 837 837 838 838 840 842 843 843 844 846 845 845 845 845 844 845 846 847 847 847 847 848 850 851 851 851 851 851
774 775 776 779 782 784 791 798 797 793 785 779 787 781 771 773 773 773 772 769 767 767 768 771 779 780 784 782 780 788 789 790 793 792 797 803 807 810 813 816 819 822 824 824 826 829 830 830 831 832 833 833 834 834 835 835 835 836 836 837 837 837 837 836 837 837 837 837 837 837 838 839 839 840 841 843 844 844 845 846 846 846 845 845 845 847 848 849 848 848 850 851 852 852 852 852 852
774 777 779 782 780 781 796 803 795 788 783 776 774 774 772 770 769 770 773 775 773 770 767 771 772 780 792 787 786 786 783 789 791 794 800 803 808 811 813 817 820 823 824 826 827 829 831 831 832 833 833 834 834 835 835 836 836 837 837 837 837 837 837 837 837 838 838 838 838 838 838 839 839 840 841 842 844 844 845 846 846 846 847 847 847 848 849 850 850 851 851 852 853 853 853 853 853
776 780 782 786 787 787 795 799 789 783 779 768 765 770 771 769 768 772 776 778 778 774 771 772 770 785 794 786 794 791 785 791 792 798 802 805 809 811 814 817 820 823 826 827 828 830 831 832 833 834 834 835 835 835 836 837 837 837 837 837 837 838 838 838 838 838 838 839 839 839 839 839 839 841 842 843 844 845 845 846 846 847 848 849 849 850 850 851 852 852 853 853 853 853 854 854 854
777 782 785 789 795 794 793 795 783 776 775 768 770 770 768 768 768 773 777 778 776 775 775 773 773 791 796 791 799 792 788 795 796 801 803 807 810 811 815 817 821 823 826 828 829 831 832 834 834 835 835 836 836 836 837 837 838 838 838 838 838 838 839 839 838 838 838 839 839 839 840 841 841 841 842 843 844 845 846 846 846 848 849 850 850 851 851 852 853 854 854 854 854 854 854 854 855
780 783 787 792 796 794 795 799 784 777 779 772 772 771 769 768 769 773 777 779 775 776 775 769 776 790 794 797 801 793 794 798 798 803 804 808 810 812 816 818 822 824 827 828 830 831 833 835 834 836 836 836 837 837 838 838 838 838 838 839 839 839 840 839 839 839 839 840 840 841 841 842 842 842 843 843 844 845 846 847 847 849 850 851 851 852 852 853 854 854 855 855 855 855 855 856 856
785 782 784 796 798 791 796 802 788 782 782 772 771 770 769 768 771 775 776 778 774 776 775 772 783 790 793 800 800 795 796 799 800 803 806 809 811 814 816 820 823 824 827 829 831 832 834 835 835 837 837 838 838 838 839 839 839 839 839 839 840 840 840 840 840 840 841 842 842 842 843 843 844 843 844 844 845 846 847 848 848 849 851 852 852 852 853 854 854 855 856 856 856 856 856 856 856
791 787 788 802 799 791 794 797 787 782 781 777 777 771 768 768 774 777 778 780 775 778 777 776 783 786 797 804 800 796 797 800 802 804 807 810 812 814 817 821 823 826 829 830 832 833 834 836 836 837 837 839 839 840 840 840 840 840 840 840 840 840 840 841 841 841 842 843 843 843 844 845 845 845 845 845 846 846 848 849 849 851 851 853 853 853 854 855 855 855 857 857 857 857 857 857 856
788 788 794 800 790 790 792 788 784 784 784 780 778 773 769 771 776 777 777 778 776 782 779 773 775 780 798 804 798 796 797 801 802 806 808 810 813 815 818 821 824 827 829 830 832 833 835 836 837 837 838 839 840 841 841 840 841 840 841 841 841 841 841 842 842 843 843 844 844 844 845 846 846 846 846 846 847 847 848 850 851 851 852 854 855 855 855 856 856 857 857 857 857 857 858 857 856
781 780 788 797 789 789 787 784 787 791 789 780 779 777 774 774 773 772 774 781 780 779 775 766 769 783 798 802 803 799 798 802 803 807 808 811 814 815 819 822 825 828 830 831 832 833 835 837 837 838 838 840 842 842 842 841 841 842 842 842 842 842 842 843 843 844 844 845 845 846 846 847 847 847 847 847 847 847 849 850 852 852 853 855 856 857 857 857 858 858 858 858 858 858 858 857 857
779 776 780 793 795 791 783 784 788 791 790 781 781 778 776 773 768 772 775 782 782 770 768 767 769 786 797 800 805 800 797 802 804 807 809 812 814 817 820 822 826 828 830 833 833 834 835 837 837 838 839 841 843 844 843 842 843 842 843 843 843 843 844 844 845 845 845 845 845 846 847 847 848 848 848 849 848 848 850 851 853 854 855 856 858 858 859 859 859 859 859 859 859 859 859 858 858
774 775 783 796 798 791 782 784 787 787 788 782 780 775 779 776 769 779 775 772 778 768 769 774 771 780 789 793 798 795 797 802 804 807 810 813 815 818 820 822 826 827 830 833 834 835 835 837 837 838 840 842 844 845 844 843 844 843 843 844 844 845 845 845 846 846 845 844 845 847 847 848 848 849 849 850 849 849 850 852 854 855 856 857 859 860 860 860 860 860 860 860 860 859 859 859 860
769 778 792 799 794 789 783 784 785 782 782 781 779 775 782 784 775 776 770 767 777 774 773 775 770 772 779 787 792 794 799 802 805 808 811 814 816 818 820 822 825 827 830 832 833 836 836 837 837 838 839 842 844 845 845 843 845 844 844 845 845 846 846 846 847 847 845 845 847 848 848 848 849 849 850 850 850 849 851 852 855 856 857 859 860 861 861 861 862 861 861 860 860 860 860 860 861
773 783 796 797 788 788 786 780 775 772 775 780 779 775 780 786 781 773 772 776 778 778 776 773 772 772 777 786 792 796 800 803 805 808 811 813 815 817 820 821 824 826 828 830 832 834 835 836 837 838 839 841 844 846 845 844 845 844 844 846 846 847 847 848 848 847 846 846 848 848 849 850 850 850 850 851 850 850 852 853 855 856 857 859 861 862 862 862 862 862 861 861 861 861 861 862 863
777 784 794 794 782 785 782 772 769 768 773 778 777 773 776 780 778 774 780 786 782 783 782 777 780 781 784 789 794 798 800 803 805 808 811 812 814 816 818 821 823 825 827 829 832 832 833 835 837 838 839 841 844 846 845 844 844 844 845 846 847 848 848 849 848 848 847 848 849 849 850 851 851 851 851 851 851 851 853 854 856 856 857 860 862 862 863 862 862 862 862 862 863 863 862 863 863
778 785 796 792 781 783 776 767 766 766 770 778 779 774 776 776 772 774 782 787 784 785 785 784 790 790 790 792 794 798 800 803 806 808 811 812 814 816 818 820 822 825 827 829 831 832 833 834 837 839 840 842 843 844 844 844 844 844 845 847 849 849 849 850 848 848 848 850 850 850 851 852 852 852 851 851 851 853 854 855 856 855 857 861 862 863 863 863 862 863 863 863 864 863 863 863 863
778 785 792 786 779 781 775 767 765 764 767 773 778 778 779 773 770 775 780 788 788 784 781 783 788 789 790 792 794 797 800 802 806 808 810 812 814 816 818 820 823 825 826 829 831 832 834 835 837 839 840 841 843 844 844 844 844 845 846 848 849 849 849 850 849 848 849 851 852 850 850 853 854 853 853 853 853 855 856 856 856 856 859 862 863 864 864 863 863 864 863 863 864 863 863 863 863
780 783 780 777 776 778 772 766 767 765 764 768 775 779 777 772 773 777 778 789 789 778 775 777 781 784 787 790 793 796 799 802 805 808 810 811 813 815 817 820 823 825 827 829 831 833 834 835 837 838 840 841 842 844 844 844 844 845 847 848 849 849 849 850 851 851 851 853 853 851 851 852 854 855 855 855 856 858 859 859 859 860 862 863 863 864 865 864 864 864 863 863 863 863 863 863 864
783 784 773 772 772 772 768 763 766 765 765 771 773 772 771 775 780 777 776 783 778 769 770 774 778 781 785 789 792 796 799 801 804 806 809 810 812 814 816 819 823 825 828 829 831 833 834 835 837 837 839 840 841 843 843 844 845 846 848 848 848 848 848 850 850 851 852 853 854 853 852 852 853 855 856 857 858 859 861 862 864 864 864 864 863 864 865 864 864 863 862 863 862 862 863 864 864
781 784 772 771 769 769 766 760 762 763 767 772 769 769 773 780 782 778 778 777 770 767 768 772 777 780 785 789 792 795 798 800 803 806 808 810 812 814 816 818 822 825 827 830 831 832 834 835 836 837 839 841 841 842 843 844 846 847 848 848 848 848 848 849 850 850 851 851 852 853 853 853 853 854 856 857 858 859 862 864 865 865 864 864 863 864 864 864 864 864 864 863 863 863 863 864 863
780 781 771 769 767 768 766 761 761 762 767 770 769 775 777 778 778 780 781 775 770 769 770 774 778 782 786 790 792 795 797 800 803 806 808 810 812 814 816 819 821 824 827 829 831 832 834 835 836 838 839 841 842 842 843 844 845 846 847 848 849 849 849 849 850 850 851 851 852 852 853 854 854 855 856 857 858 859 862 864 865 865 865 865 864 864 865 865 865 865 866 865 864 864 863 863 863
774 775 771 768 765 764 767 764 762 766 769 769 777 784 781 775 777 785 783 774 771 770 773 777 779 785 788 790 793 795 797 799 803 806 808 810 812 814 816 819 821 823 826 828 830 832 833 835 836 838 839 841 842 842 843 844 846 846 847 848 849 850 850 851 851 851 851 852 852 853 854 855 856 857 858 860 861 862 864 864 866 866 865 866 866 865 865 864 864 865 865 864 864 863 863 863 862
762 769 769 764 761 761 769 771 770 777 778 774 783 790 786 777 781 793 784 771 772 774 778 779 782 787 788 791 794 795 798 800 803 806 808 810 813 815 816 818 820 822 825 827 830 832 833 834 836 838 840 841 842 843 844 845 846 847 848 849 849 850 851 852 852 852 852 853 853 854 855 857 858 859 860 861 862 863 863 864 865 865 864 866 866 865 864 864 863 863 863 863 863 863 863 863 862
753 760 765 764 762 768 778 784 783 785 789 787 785 790 791 784 787 792 781 772 773 777 781 782 784 788 789 792 795 795 798 800 803 805 808 811 813 814 816 817 820 822 824 826 829 832 832 834 836 838 840 841 842 843 844 845 846 847 848 849 850 851 851 852 852 853 853 854 855 856 857 857 858 859 860 861 861 862 862 863 863 863 863 863 864 864 864 863 863 863 862 863 863 862 863 863 862
751 756 773 777 773 783 787 787 789 789 797 794 788 801 804 795 792 786 776 774 775 779 783 783 786 788 790 793 795 797 798 801 804 806 808 810 812 813 815 818 819 822 824 826 829 830 832 834 836 838 840 842 843 844 845 846 847 848 849 849 850 851 852 852 853 854 854 855 856 856 857 858 859 859 860 860 861 861 862 862 862 862 862 862 862 863 863 863 862 862 862 862 863 863 863 863 862
760 765 785 792 789 796 790 787 789 790 798 791 792 815 814 799 793 782 774 775 777 782 785 784 787 788 791 794 796 797 798 801 802 805 809 809 812 813 815 817 819 821 824 827 829 829 832 834 836 838 840 842 843 845 846 846 848 849 849 850 851 851 852 853 853 854 855 856 857 858 858 858 859 860 860 861 861 862 861 861 861 861 862 862 862 862 862 862 862 862 862 862 863 863 863 863 861
769 775 790 795 798 803 791 788 791 794 798 789 795 816 812 799 793 782 775 775 779 785 786 785 787 789 792 794 796 798 798 801 802 804 808 809 811 812 815 817 819 822 825 826 828 829 832 833 836 838 840 842 844 845 846 847 848 849 850 851 852 852 852 853 854 855 856 857 858 859 859 859 860 861 861 861 861 862 861 861 862 862 862 863 863 863 863 863 863 863 863 863 863 864 863 863 862
771 788 803 792 791 803 795 787 789 794 797 790 798 815 812 801 793 784 778 776 780 786 787 785 787 789 792 794 795 798 799 799 801 803 806 809 811 812 815 817 819 822 824 826 828 830 832 834 836 837 840 842 844 846 847 848 849 849 851 851 852 853 853 853 854 855 857 858 859 860 860 861 861 861 861 862 862 862 862 862 863 863 863 864 864 864 864 864 864 864 864 864 864 864 864 863 863
772 788 803 788 784 800 798 792 788 787 794 794 798 812 813 801 791 785 780 779 782 786 787 786 788 790 791 794 794 796 800 799 800 802 806 808 810 813 816 818 821 823 824 826 828 830 832 834 836 838 840 842 844 846 847 848 849 850 851 852 853 853 854 854 855 856 857 858 859 860 861 861 861 862 862 862 862 862 862 863 864 864 865 865 865 865 865 865 865 865 865 864 864 865 864 863 863
780 784 795 795 790 795 797 799 794 787 793 798 797 803 805 796 789 788 783 781 785 788 789 787 788 790 790 792 794 796 799 800 800 802 805 808 810 813 816 818 821 823 825 826 828 830 832 835 837 838 840 842 844 846 847 848 849 850 851 852 853 854 854 855 856 856 857 858 860 861 861 862 862 862 863 863 863 863 863 863 865 865 865 865 865 866 866 866 866 866 866 865 865 865 864 863 863
784 790 799 805 796 793 795 795 792 790 794 796 799 802 801 794 788 789 786 783 787 789 788 788 788 790 791 791 793 796 798 800 800 801 804 807 810 813 816 819 821 823 825 827 829 831 833 835 837 839 841 842 844 846 847 849 849 851 852 853 854 855 855 855 856 857 858 859 860 861 861 862 862 863 864 864 864 864 864 864 865 866 866 866 866 866 866 867 867 867 867 867 866 865 864 864 863
774 787 797 801 800 798 792 788 786 786 793 795 798 803 801 798 793 790 787 784 787 790 788 789 789 789 791 792 792 795 798 799 799 800 804 806 809 813 816 819 821 823 825 827 830 832 833 836 837 839 841 842 844 846 847 848 850 851 851 853 854 855 856 856 857 857 858 859 860 861 862 862 863 863 864 864 864 865 865 866 866 866 867 867 867 867 867 868 867 867 867 867 866 865 865 864 862
763 781 792 793 800 800 790 790 786 779 790 795 793 801 804 801 797 790 788 788 788 790 791 791 791 791 791 791 792 795 797 797 797 800 803 806 809 812 816 818 820 822 825 828 830 832 834 836 838 839 841 843 844 845 847 848 849 850 851 853 854 855 856 857 857 858 858 859 861 862 862 863 863 863 864 864 865 865 866 867 867 867 867 868 868 867 868 868 868 867 867 866 866 865 864 863 862
757 773 793 800 801 798 789 788 786 780 792 797 791 802 810 802 796 792 792 794 792 789 791 792 792 792 792 791 792 795 796 794 796 800 802 805 809 812 815 817 820 822 824 828 830 832 834 836 838 840 841 843 844 845 847 848 849 850 851 852 854 855 856 857 857 857 858 860 861 862 862 863 863 864 864 864 865 866 866 868 869 869 868 869 870 869 869 869 868 867 867 867 866 865 863 863 863
754 762 787 804 799 797 797 791 787 785 791 796 793 803 812 804 797 798 798 797 792 786 786 789 790 793 793 792 792 795 796 796 797 799 801 805 807 811 814 816 819 822 824 827 829 832 834 836 838 840 841 843 844 846 847 848 849 850 851 852 853 855 856 856 857 858 859 860 861 862 863 863 864 864 864 865 865 866 867 868 869 870 870 871 871 871 870 869 868 867 867 868 866 864 863 863 864
754 758 778 798 798 797 802 800 795 789 788 792 792 800 810 808 803 804 802 796 790 786 786 786 787 792 793 790 791 794 796 798 799 799 800 803 807 810 813 816 818 821 823 825 828 831 834 836 838 839 841 843 844 846 847 848 849 850 852 853 853 855 855 856 857 858 859 860 862 862 863 864 864 864 865 865 865 866 867 868 869 870 871 872 872 871 870 869 869 868 868 869 867 865 863 863 865
753 753 767 787 800 798 791 795 798 794 794 794 797 813 818 812 812 809 802 798 794 790 790 790 787 789 791 790 790 792 794 796 798 799 799 801 805 809 812 815 817 819 822 824 826 829 832 835 837 839 841 843 844 846 847 848 849 851 852 853 854 855 856 857 858 859 859 861 862 862 863 864 864 865 865 865 866 866 867 868 869 870 871 872 872 871 871 869 869 869 869 869 868 866 864 864 866
755 747 749 761 783 792 785 792 805 811 812 799 799 825 829 814 812 809 801 800 797 793 796 797 792 789 791 792 792 792 793 794 796 797 798 800 803 807 811 814 816 818 820 822 825 827 830 833 836 839 840 842 844 845 847 848 849 851 852 853 854 854 856 857 857 858 858 860 861 862 863 864 865 865 865 865 866 867 867 868 869 870 871 871 871 871 871 870 870 870 869 869 868 867 866 865 866
763 746 740 747 764 782 785 790 806 821 822 802 793 813 826 822 816 805 799 802 800 796 799 798 792 790 792 792 793 792 792 793 794 795 796 798 802 805 809 812 814 817 819 821 824 826 829 833 835 838 840 842 844 845 847 848 849 851 852 852 853 854 855 856 857 857 858 858 859 861 863 864 865 865 866 866 866 867 868 868 869 869 870 870 870 871 870 870 870 870 870 869 869 869 868 867 867
766 744 740 749 755 772 786 792 801 806 806 805 797 801 819 825 815 802 799 805 806 803 802 799 793 791 790 791 791 790 790 791 792 794 795 797 801 804 807 811 812 815 818 819 822 825 828 831 834 837 839 841 843 845 846 848 849 850 851 852 853 854 855 855 856 857 858 858 859 860 862 863 865 865 866 866 867 867 868 868 868 869 869 870 870 870 870 870 871 871 871 870 870 870 870 869 869
759 745 747 750 750 761 772 783 794 787 791 809 804 799 818 820 806 802 803 807 811 808 803 800 795 791 788 790 790 787 787 788 789 792 793 795 799 803 806 809 811 813 816 819 821 824 827 830 833 836 838 840 842 844 846 847 848 849 851 852 852 853 854 855 856 857 858 859 859 861 862 863 864 865 866 867 867 868 868 868 869 869 869 870 870 870 871 871 871 872 872 871 871 871 871 871 871
747 744 751 749 749 755 759 772 787 788 792 802 795 798 822 825 810 809 813 810 808 805 801 796 791 789 787 787 788 786 785 787 787 789 791 794 798 801 804 808 810 812 815 818 820 823 826 829 832 835 837 839 841 843 845 847 848 849 850 851 852 853 854 855 856 857 858 859 860 861 862 863 863 864 865 866 867 867 868 868 868 869 869 870 870 871 871 872 872 872 872 872 872 872 872 872 872
746 750 757 755 755 756 759 767 781 801 803 790 784 789 808 823 819 811 808 800 793 796 799 795 788 787 787 785 785 784 783 785 787 788 789 793 797 799 803 806 808 812 814 816 819 822 825 828 831 834 836 838 840 842 844 846 847 848 849 851 852 853 854 855 856 857 858 859 860 861 862 863 863 864 865 866 866 867 868 868 868 868 869 870 871 871 871 872 872 872 872 872 872 872 873 873 873
752 758 762 766 769 769 774 776 783 807 806 781 775 782 798 816 810 797 792 784 780 787 792 790 789 788 785 783 782 780 781 784 785 788 789 792 796 798 801 804 807 810 813 815 818 821 824 827 829 832 835 837 839 841 844 845 847 848 849 850 852 853 853 855 856 857 858 859 860 861 861 862 862 863 864 865 865 866 867 868 868 869 870 870 871 871 871 871 871 872 872 872 873 873 873 873 874
759 762 766 778 791 796 802 801 796 801 791 767 761 776 797 806 789 777 780 779 777 779 781 783 785 786 785 782 780 778 779 782 783 787 789 790 794 797 799 803 806 809 812 814 817 819 823 826 828 831 834 836 838 840 843 844 846 847 848 850 851 852 853 854 855 856 857 858 859 860 861 862 862 863 863 864 865 866 867 868 868 869 870 870 870 871 871 872 872 872 872 873 873 873 873 873 874
763 765 769 782 798 814 821 812 801 795 781 761 754 767 787 791 780 771 770 772 771 771 775 779 779 781 782 780 778 777 777 780 782 785 788 790 793 795 798 802 805 808 811 813 816 818 821 824 827 830 832 835 837 839 841 843 845 847 848 849 850 851 853 854 855 856 856 858 858 859 860 861 862 862 863 864 864 865 866 867 868 869 869 870 870 871 871 872 872 872 872 873 873 873 873 874 874
757 753 757 772 782 798 811 806 803 798 783 768 765 773 781 786 785 774 762 759 762 766 771 775 778 778 777 777 776 776 777 779 781 784 786 789 792 795 797 800 804 807 809 812 814 817 820 823 826 829 831 834 836 838 840 842 844 846 847 848 849 851 852 853 854 855 855 856 857 859 859 860 861 862 862 863 864 865 866 867 868 868 869 870 870 871 871 872 872 872 872 873 873 873 873 874 874
752 744 755 767 763 770 785 786 784 787 791 790 786 780 774 777 781 770 761 758 760 768 771 774 780 779 777 779 777 775 777 778 779 783 785 787 790 794 795 798 803 806 808 810 813 816 819 822 825 827 830 832 835 837 839 841 843 845 846 848 849 850 851 852 853 854 855 856 857 858 859 860 860 861 862 863 864 865 865 866 867 868 868 869 869 870 871 871 872 872 872 872 873 873 873 873 873
749 751 761 755 743 755 777 782 772 776 794 799 792 783 772 779 783 767 762 766 764 768 773 778 785 784 782 781 776 774 776 777 778 781 783 785 789 792 794 797 801 804 806 809 812 815 818 820 824 826 828 831 834 836 838 840 842 844 845 847 848 849 850 851 852 853 854 855 856 857 858 859 860 861 861 862 863 864 865 865 866 867 868 868 869 870 870 871 871 871 872 872 872 872 873 873 873
748 757 752 740 741 752 771 790 789 788 796 788 780 782 782 793 794 770 763 771 769 768 772 778 784 787 785 779 775 774 773 776 778 778 781 783 787 791 793 796 798 801 804 807 811 814 817 820 822 825 827 829 832 834 837 839 840 842 844 846 847 848 849 850 851 852 853 854 856 856 857 858 859 860 861 861 862 863 864 865 866 866 867 868 868 869 870 870 871 871 871 871 872 872 872 872 873
741 743 733 739 762 768 771 790 797 797 800 789 778 774 774 787 789 773 769 771 769 770 771 774 780 786 785 777 774 774 773 775 777 778 780 781 785 790 792 794 796 800 803 806 810 813 815 818 820 823 825 827 830 833 835 838 839 841 842 844 846 847 848 849 850 851 852 853 854 855 856 857 858 859 860 861 862 862 863 864 865 866 866 867 867 868 869 869 870 870 870 871 871 871 872 872 872
739 740 736 739 753 760 765 774 780 788 795 794 790 780 773 776 773 770 773 767 765 770 770 772 776 779 782 780 777 774 773 776 777 778 780 779 783 788 790 793 794 798 802 803 807 810 812 815 818 820 823 825 828 830 833 836 838 840 841 843 845 846 847 848 849 850 851 852 853 854 855 856 857 858 859 860 861 861 863 863 864 865 865 866 867 867 868 868 869 869 869 870 870 870 871 871 871
750 755 756 752 748 749 758 762 762 773 787 793 797 792 785 780 768 762 764 762 763 767 769 774 775 774 780 788 787 779 775 777 776 777 779 778 781 785 788 791 793 796 800 801 804 807 809 812 815 818 821 823 826 828 830 833 835 838 840 841 843 844 846 847 848 849 850 851 852 853 853 854 855 856 857 858 860 860 861 862 863 864 864 865 866 866 867 867 868 868 868 869 869 869 870 870 870
744 753 755 755 750 751 769 775 759 757 771 780 787 791 787 779 770 764 760 759 761 761 764 774 776 773 775 781 783 778 775 776 776 777 778 779 781 784 786 789 791 795 798 800 802 804 806 810 814 817 819 821 824 826 828 831 833 836 838 840 842 843 844 845 846 848 848 849 850 851 852 853 854 855 856 857 858 859 860 861 862 863 863 864 865 865 866 867 867 868 868 868 868 869 869 869 869